Time,TemperatureF,DewpointF,PressureIn,WindDirection,WindDirectionDegrees,WindSpeedMPH,WindSpeedGustMPH,Humidity,HourlyPrecipIn,Conditions,Clouds,dailyrainin,SoftwareType,DateUTC
2013-04-07 00:03:00,43.0,23.0,30.05,South,171,5.0,10.0,44,0.00,,,0.00,,2013-04-07 04:03:00,
2013-04-07 00:14:00,43.0,23.0,30.05,South,171,5.0,10.0,44,0.00,,,0.00,,2013-04-07 04:14:00,
2013-04-07 00:23:00,43.0,22.0,30.05,South,173,2.0,7.0,43,0.00,,,0.00,,2013-04-07 04:23:00,
2013-04-07 00:32:00,44.0,23.0,30.05,SSE,168,2.0,7.0,43,0.00,,,0.00,,2013-04-07 04:32:00,
2013-04-07 00:43:00,44.0,23.0,30.05,SSE,168,2.0,7.0,43,0.00,,,0.00,,2013-04-07 04:43:00,
2013-04-07 00:53:00,44.0,23.0,30.04,SSE,167,2.0,9.0,43,0.00,,,0.00,,2013-04-07 04:53:00,
2013-04-07 01:02:00,44.0,23.0,30.03,SE,146,1.0,9.0,43,0.00,,,0.00,,2013-04-07 05:02:00,
2013-04-07 01:12:00,44.0,23.0,30.03,SE,146,1.0,9.0,43,0.00,,,0.00,,2013-04-07 05:12:00,
2013-04-07 01:23:00,44.0,23.0,30.01,SSE,164,3.0,10.0,43,0.00,,,0.00,,2013-04-07 05:23:00,
2013-04-07 01:33:00,45.0,24.0,30.01,SSE,166,3.0,7.0,43,0.00,,,0.00,,2013-04-07 05:33:00,
2013-04-07 01:43:00,45.0,24.0,30.01,SSE,166,3.0,7.0,43,0.00,,,0.00,,2013-04-07 05:43:00,
2013-04-07 01:52:00,45.0,24.0,29.99,South,177,2.0,10.0,43,0.00,,,0.00,,2013-04-07 05:52:00,
2013-04-07 02:02:00,45.0,24.0,29.98,SSE,154,3.0,9.0,43,0.00,,,0.00,,2013-04-07 06:02:00,
2013-04-07 02:12:00,45.0,24.0,29.98,SSE,154,3.0,9.0,43,0.00,,,0.00,,2013-04-07 06:12:00,
2013-04-07 02:22:00,46.0,24.0,29.98,South,169,6.0,12.0,41,0.00,,,0.00,,2013-04-07 06:22:00,
2013-04-07 02:32:00,46.0,24.0,29.97,South,176,5.0,11.0,41,0.00,,,0.00,,2013-04-07 06:32:00,
2013-04-07 02:42:00,46.0,24.0,29.97,South,176,5.0,11.0,41,0.00,,,0.00,,2013-04-07 06:42:00,
2013-04-07 02:53:00,47.0,25.0,29.96,South,169,4.0,14.0,42,0.00,,,0.00,,2013-04-07 06:53:00,
2013-04-07 03:02:00,47.0,25.0,29.96,SSE,163,5.0,11.0,42,0.00,,,0.00,,2013-04-07 07:02:00,
2013-04-07 03:12:00,47.0,25.0,29.96,SSE,163,5.0,11.0,42,0.00,,,0.00,,2013-04-07 07:12:00,
2013-04-07 03:22:00,47.0,26.0,29.95,South,178,6.0,12.0,44,0.00,,,0.00,,2013-04-07 07:22:00,
2013-04-07 03:33:00,46.0,26.0,29.95,South,186,6.0,13.0,46,0.00,,,0.00,,2013-04-07 07:33:00,
2013-04-07 03:42:00,46.0,26.0,29.95,South,186,6.0,13.0,46,0.00,,,0.00,,2013-04-07 07:42:00,
2013-04-07 03:52:00,47.0,26.0,29.92,SSE,163,3.0,16.0,43,0.00,,,0.00,,2013-04-07 07:52:00,
2013-04-07 04:02:00,48.0,26.0,29.91,South,175,10.0,18.0,42,0.00,,,0.00,,2013-04-07 08:02:00,
2013-04-07 04:12:00,48.0,26.0,29.91,South,175,10.0,18.0,42,0.00,,,0.00,,2013-04-07 08:12:00,
2013-04-07 04:22:00,48.0,25.0,29.91,ESE,123,6.0,15.0,41,0.00,,,0.00,,2013-04-07 08:22:00,
2013-04-07 04:33:00,48.0,25.0,29.91,South,177,6.0,13.0,41,0.00,,,0.00,,2013-04-07 08:33:00,
2013-04-07 04:42:00,48.0,25.0,29.91,South,177,6.0,13.0,41,0.00,,,0.00,,2013-04-07 08:42:00,
2013-04-07 04:53:00,48.0,26.0,29.91,SSE,156,7.0,16.0,42,0.00,,,0.00,,2013-04-07 08:53:00,
2013-04-07 05:02:00,48.0,25.0,29.90,SE,143,5.0,16.0,41,0.00,,,0.00,,2013-04-07 09:02:00,
2013-04-07 05:12:00,48.0,25.0,29.90,SE,143,5.0,16.0,41,0.00,,,0.00,,2013-04-07 09:12:00,
2013-04-07 05:22:00,47.0,25.0,29.90,South,186,5.0,15.0,42,0.00,,,0.00,,2013-04-07 09:22:00,
2013-04-07 05:33:00,48.0,26.0,29.89,SSE,150,4.0,15.0,42,0.00,,,0.00,,2013-04-07 09:33:00,
2013-04-07 05:43:00,48.0,26.0,29.89,SSE,150,4.0,15.0,42,0.00,,,0.00,,2013-04-07 09:43:00,
2013-04-07 05:54:00,48.0,26.0,29.88,SSE,163,4.0,12.0,42,0.00,,,0.00,,2013-04-07 09:54:00,
2013-04-07 06:04:00,48.0,26.0,29.88,SSE,148,6.0,16.0,42,0.00,,,0.00,,2013-04-07 10:04:00,
2013-04-07 06:23:00,48.0,27.0,29.87,SSE,148,3.0,11.0,43,0.00,,,0.00,,2013-04-07 10:23:00,
2013-04-07 06:33:00,47.0,26.0,29.87,SSE,163,3.0,9.0,44,0.00,,,0.00,,2013-04-07 10:33:00,
2013-04-07 06:43:00,47.0,26.0,29.87,SSE,163,3.0,9.0,44,0.00,,,0.00,,2013-04-07 10:43:00,
2013-04-07 06:54:00,48.0,27.0,29.86,South,179,4.0,11.0,44,0.00,,,0.00,,2013-04-07 10:54:00,
2013-04-07 07:03:00,48.0,27.0,29.86,SSE,158,4.0,10.0,44,0.00,,,0.00,,2013-04-07 11:03:00,
2013-04-07 07:12:00,48.0,27.0,29.86,SSE,158,4.0,10.0,44,0.00,,,0.00,,2013-04-07 11:12:00,
2013-04-07 07:23:00,49.0,28.0,29.85,South,180,5.0,10.0,44,0.00,,,0.00,,2013-04-07 11:23:00,
2013-04-07 07:33:00,49.0,28.0,29.85,South,174,4.0,14.0,44,0.00,,,0.00,,2013-04-07 11:33:00,
2013-04-07 07:43:00,49.0,28.0,29.85,South,174,4.0,14.0,44,0.00,,,0.00,,2013-04-07 11:43:00,
2013-04-07 07:53:00,50.0,29.0,29.84,SSE,168,4.0,11.0,44,0.00,,,0.00,,2013-04-07 11:53:00,
2013-04-07 08:02:00,49.0,29.0,29.84,SSE,158,3.0,9.0,45,0.00,,,0.00,,2013-04-07 12:02:00,
2013-04-07 08:12:00,49.0,29.0,29.84,SSE,158,3.0,9.0,45,0.00,,,0.00,,2013-04-07 12:12:00,
2013-04-07 08:23:00,50.0,29.0,29.83,SE,142,2.0,13.0,45,0.00,,,0.00,,2013-04-07 12:23:00,
2013-04-07 08:34:00,51.0,30.0,29.83,SSE,154,4.0,12.0,45,0.00,,,0.00,,2013-04-07 12:34:00,
2013-04-07 08:43:00,51.0,30.0,29.83,SSE,154,4.0,12.0,45,0.00,,,0.00,,2013-04-07 12:43:00,
2013-04-07 08:54:00,51.0,30.0,29.82,SSE,159,2.0,10.0,45,0.00,,,0.00,,2013-04-07 12:54:00,
2013-04-07 09:04:00,51.0,30.0,29.82,SSE,158,4.0,9.0,45,0.00,,,0.00,,2013-04-07 13:04:00,
2013-04-07 09:13:00,51.0,30.0,29.82,SSE,158,4.0,9.0,45,0.00,,,0.00,,2013-04-07 13:13:00,
2013-04-07 09:23:00,54.0,33.0,29.81,SW,236,4.0,12.0,44,0.00,,,0.00,,2013-04-07 13:23:00,
2013-04-07 09:33:00,54.0,33.0,29.80,SSW,202,4.0,14.0,44,0.00,,,0.00,,2013-04-07 13:33:00,
2013-04-07 09:42:00,54.0,33.0,29.80,SSW,202,4.0,14.0,44,0.00,,,0.00,,2013-04-07 13:42:00,
2013-04-07 09:53:00,56.0,33.0,29.80,North,355,4.0,18.0,42,0.00,,,0.00,,2013-04-07 13:53:00,
2013-04-07 10:02:00,56.0,34.0,29.79,NNE,24,3.0,12.0,43,0.00,,,0.00,,2013-04-07 14:02:00,
2013-04-07 10:12:00,56.0,34.0,29.79,NNE,24,3.0,12.0,43,0.00,,,0.00,,2013-04-07 14:12:00,
2013-04-07 10:23:00,56.0,33.0,29.79,ENE,72,4.0,14.0,42,0.00,,,0.00,,2013-04-07 14:23:00,
2013-04-07 10:33:00,57.0,35.0,29.78,SSE,152,3.0,15.0,43,0.00,,,0.00,,2013-04-07 14:33:00,
2013-04-07 10:43:00,57.0,35.0,29.78,SSE,152,3.0,15.0,43,0.00,,,0.00,,2013-04-07 14:43:00,
2013-04-07 10:54:00,57.0,34.0,29.78,ESE,121,6.0,11.0,42,0.00,,,0.00,,2013-04-07 14:54:00,
2013-04-07 11:03:00,59.0,35.0,29.77,SE,129,7.0,15.0,41,0.00,,,0.00,,2013-04-07 15:03:00,
2013-04-07 11:13:00,59.0,35.0,29.77,South,172,8.0,17.0,41,0.00,,,0.00,,2013-04-07 15:13:00,
2013-04-07 11:22:00,59.0,35.0,29.77,South,172,8.0,17.0,41,0.00,,,0.00,,2013-04-07 15:22:00,
2013-04-07 11:35:00,59.0,36.0,29.76,East,94,4.0,14.0,42,0.00,,,0.00,,2013-04-07 15:35:00,
2013-04-07 11:45:00,59.0,36.0,29.76,East,94,4.0,14.0,42,0.00,,,0.00,,2013-04-07 15:45:00,
2013-04-07 11:55:00,59.0,36.0,29.75,SSE,162,2.0,11.0,42,0.00,,,0.00,,2013-04-07 15:55:00,
2013-04-07 12:04:00,60.0,37.0,29.75,SE,133,3.0,14.0,42,0.00,,,0.00,,2013-04-07 16:04:00,
2013-04-07 12:25:00,61.0,38.0,29.75,SSW,203,2.0,12.0,42,0.00,,,0.00,,2013-04-07 16:25:00,
2013-04-07 12:33:00,62.0,39.0,29.75,East,86,3.0,14.0,42,0.00,,,0.00,,2013-04-07 16:33:00,
2013-04-07 12:43:00,62.0,39.0,29.75,East,86,3.0,14.0,42,0.00,,,0.00,,2013-04-07 16:43:00,
2013-04-07 12:54:00,65.0,40.0,29.74,SSE,153,8.0,21.0,40,0.00,,,0.00,,2013-04-07 16:54:00,
2013-04-07 13:05:00,65.0,40.0,29.73,South,176,9.0,22.0,40,0.00,,,0.00,,2013-04-07 17:05:00,
2013-04-07 13:13:00,65.0,40.0,29.73,South,176,9.0,22.0,40,0.00,,,0.00,,2013-04-07 17:13:00,
2013-04-07 13:23:00,66.0,41.0,29.72,SW,219,5.0,18.0,40,0.00,,,0.00,,2013-04-07 17:23:00,
2013-04-07 13:33:00,67.0,42.0,29.72,SSW,196,6.0,15.0,40,0.00,,,0.00,,2013-04-07 17:33:00,
2013-04-07 13:43:00,67.0,42.0,29.72,SSW,196,6.0,15.0,40,0.00,,,0.00,,2013-04-07 17:43:00,
2013-04-07 13:54:00,68.0,43.0,29.71,SSW,197,6.0,18.0,40,0.00,,,0.00,,2013-04-07 17:54:00,
2013-04-07 14:02:00,67.0,43.0,29.71,WNW,288,8.0,30.0,42,0.00,,,0.00,,2013-04-07 18:02:00,
2013-04-07 14:13:00,67.0,43.0,29.71,WNW,288,8.0,30.0,42,0.00,,,0.00,,2013-04-07 18:13:00,
2013-04-07 14:23:00,68.0,43.0,29.71,WSW,240,10.0,29.0,41,0.00,,,0.00,,2013-04-07 18:23:00,
2013-04-07 14:33:00,69.0,44.0,29.71,WNW,291,11.0,31.0,41,0.00,,,0.00,,2013-04-07 18:33:00,
2013-04-07 14:43:00,69.0,44.0,29.71,WNW,291,11.0,31.0,41,0.00,,,0.00,,2013-04-07 18:43:00,
2013-04-07 14:53:00,70.0,45.0,29.71,WSW,240,7.0,24.0,41,0.00,,,0.00,,2013-04-07 18:53:00,
2013-04-07 15:03:00,70.0,45.0,29.71,WSW,254,18.0,30.0,40,0.00,,,0.00,,2013-04-07 19:03:00,
2013-04-07 15:13:00,70.0,45.0,29.71,WSW,254,18.0,30.0,40,0.00,,,0.00,,2013-04-07 19:13:00,
2013-04-07 15:22:00,71.0,46.0,29.71,WNW,291,7.0,26.0,41,0.00,,,0.00,,2013-04-07 19:22:00,
2013-04-07 15:33:00,71.0,45.0,29.70,NW,315,6.0,36.0,40,0.00,,,0.00,,2013-04-07 19:33:00,
2013-04-07 15:42:00,71.0,45.0,29.70,NW,315,6.0,36.0,40,0.00,,,0.00,,2013-04-07 19:42:00,
2013-04-07 15:55:00,71.0,48.0,29.72,NNW,336,5.0,21.0,44,0.00,,,0.00,,2013-04-07 19:55:00,
2013-04-07 16:03:00,70.0,49.0,29.72,North,360,10.0,18.0,47,0.00,,,0.00,,2013-04-07 20:03:00,
2013-04-07 16:13:00,70.0,49.0,29.72,North,360,10.0,18.0,47,0.00,,,0.00,,2013-04-07 20:13:00,
2013-04-07 16:22:00,68.0,48.0,29.74,NNW,329,8.0,21.0,49,0.00,,,0.00,,2013-04-07 20:22:00,
2013-04-07 16:33:00,68.0,49.0,29.74,NW,319,6.0,28.0,50,0.00,,,0.00,,2013-04-07 20:33:00,
2013-04-07 16:43:00,68.0,49.0,29.74,NW,319,6.0,28.0,50,0.00,,,0.00,,2013-04-07 20:43:00,
2013-04-07 16:55:00,66.0,47.0,29.76,NNW,338,10.0,31.0,51,0.00,,,0.00,,2013-04-07 20:55:00,
2013-04-07 17:03:00,65.0,47.0,29.77,West,279,14.0,32.0,53,0.00,,,0.00,,2013-04-07 21:03:00,
2013-04-07 17:13:00,65.0,47.0,29.77,West,279,14.0,32.0,53,0.00,,,0.00,,2013-04-07 21:13:00,
2013-04-07 17:23:00,65.0,47.0,29.78,NNW,333,8.0,33.0,53,0.00,,,0.00,,2013-04-07 21:23:00,
2013-04-07 17:34:00,64.0,46.0,29.79,NNW,331,11.0,33.0,52,0.00,,,0.00,,2013-04-07 21:34:00,
2013-04-07 17:44:00,64.0,46.0,29.79,NNW,331,11.0,33.0,52,0.00,,,0.00,,2013-04-07 21:44:00,
2013-04-07 17:55:00,64.0,45.0,29.79,NNW,342,14.0,39.0,51,0.00,,,0.00,,2013-04-07 21:55:00,
2013-04-07 18:04:00,64.0,45.0,29.79,North,355,10.0,34.0,51,0.00,,,0.00,,2013-04-07 22:04:00,
2013-04-07 18:14:00,64.0,45.0,29.79,North,355,10.0,34.0,51,0.00,,,0.00,,2013-04-07 22:14:00,
2013-04-07 18:24:00,59.0,44.0,29.81,North,355,9.0,17.0,57,0.00,,,0.00,,2013-04-07 22:24:00,
2013-04-07 18:34:00,59.0,44.0,29.82,North,350,7.0,12.0,58,0.00,,,0.00,,2013-04-07 22:34:00,
2013-04-07 18:43:00,59.0,44.0,29.82,North,350,7.0,12.0,58,0.00,,,0.00,,2013-04-07 22:43:00,
2013-04-07 18:54:00,57.0,43.0,29.83,NE,49,9.0,18.0,59,0.00,,,0.00,,2013-04-07 22:54:00,
2013-04-07 19:03:00,56.0,42.0,29.84,NE,36,7.0,17.0,60,0.00,,,0.00,,2013-04-07 23:03:00,
2013-04-07 19:13:00,56.0,42.0,29.84,NE,36,7.0,17.0,60,0.00,,,0.00,,2013-04-07 23:13:00,
2013-04-07 19:23:00,55.0,42.0,29.86,North,5,8.0,20.0,61,0.00,,,0.00,,2013-04-07 23:23:00,
2013-04-07 19:32:00,54.0,41.0,29.87,North,5,7.0,16.0,61,0.00,,,0.00,,2013-04-07 23:32:00,
2013-04-07 19:43:00,54.0,41.0,29.87,North,5,7.0,16.0,61,0.00,,,0.00,,2013-04-07 23:43:00,
2013-04-07 19:53:00,52.0,39.0,29.88,NNE,19,5.0,18.0,62,0.00,,,0.00,,2013-04-07 23:53:00,
2013-04-07 20:02:00,52.0,40.0,29.89,NNE,30,4.0,13.0,63,0.00,,,0.00,,2013-04-08 00:02:00,
2013-04-07 20:12:00,52.0,40.0,29.89,NNE,30,4.0,13.0,63,0.00,,,0.00,,2013-04-08 00:12:00,
2013-04-07 20:23:00,51.0,39.0,29.91,NE,36,8.0,17.0,63,0.00,,,0.00,,2013-04-08 00:23:00,
2013-04-07 20:33:00,50.0,38.0,29.92,North,355,6.0,15.0,64,0.00,,,0.00,,2013-04-08 00:33:00,
2013-04-07 20:42:00,50.0,38.0,29.92,North,355,6.0,15.0,64,0.00,,,0.00,,2013-04-08 00:42:00,
2013-04-07 20:53:00,50.0,38.0,29.93,North,11,7.0,21.0,64,0.00,,,0.00,,2013-04-08 00:53:00,
2013-04-07 21:03:00,49.0,37.0,29.94,NNE,22,10.0,17.0,64,0.00,,,0.00,,2013-04-08 01:03:00,
2013-04-07 21:12:00,49.0,37.0,29.94,NNE,22,10.0,17.0,64,0.00,,,0.00,,2013-04-08 01:12:00,
2013-04-07 21:23:00,49.0,38.0,29.96,NNE,32,5.0,8.0,65,0.00,,,0.00,,2013-04-08 01:23:00,
2013-04-07 21:33:00,47.0,36.0,29.97,North,5,5.0,11.0,65,0.00,,,0.00,,2013-04-08 01:33:00,
2013-04-07 21:44:00,47.0,36.0,29.97,North,5,5.0,11.0,65,0.00,,,0.00,,2013-04-08 01:44:00,
2013-04-07 21:55:00,46.0,36.0,29.99,NNE,19,7.0,14.0,67,0.00,,,0.00,,2013-04-08 01:55:00,
2013-04-07 22:03:00,45.0,35.0,30.00,North,11,4.0,10.0,68,0.00,,,0.00,,2013-04-08 02:03:00,
2013-04-07 22:12:00,45.0,35.0,30.00,North,11,4.0,10.0,68,0.00,,,0.00,,2013-04-08 02:12:00,
2013-04-07 22:22:00,45.0,35.0,30.01,NNE,13,5.0,11.0,68,0.00,,,0.00,,2013-04-08 02:22:00,
2013-04-07 22:33:00,45.0,35.0,30.01,North,350,4.0,10.0,69,0.00,,,0.00,,2013-04-08 02:33:00,
2013-04-07 22:47:00,45.0,35.0,30.01,North,350,4.0,10.0,69,0.00,,,0.00,,2013-04-08 02:47:00,
2013-04-07 22:55:00,44.0,34.0,30.02,North,5,9.0,15.0,69,0.00,,,0.00,,2013-04-08 02:55:00,
2013-04-07 23:08:00,44.0,34.0,30.02,North,9,7.0,12.0,69,0.00,,,0.00,,2013-04-08 03:08:00,
2013-04-07 23:15:00,44.0,34.0,30.02,North,9,7.0,12.0,69,0.00,,,0.00,,2013-04-08 03:15:00,
2013-04-07 23:25:00,44.0,34.0,30.02,North,9,8.0,10.0,69,0.00,,,0.00,,2013-04-08 03:25:00,
2013-04-07 23:35:00,44.0,34.0,30.03,NNE,22,4.0,11.0,69,0.00,,,0.00,,2013-04-08 03:35:00,
2013-04-07 23:47:00,44.0,34.0,30.03,NNE,22,4.0,11.0,69,0.00,,,0.00,,2013-04-08 03:47:00,
2013-04-07 23:58:00,43.0,34.0,30.03,NNE,23,6.0,9.0,70,0.00,,,0.00,,2013-04-08 03:58:00,